Other Public Products
Issued by NWS Grand Forks, ND

Home | Current Version | Previous Version | Graphics & Text | Print | Product List | Glossary On
Versions: 1 2 3 4 5 6 7 8 9 10 11 12 13 14 15 16 17 18 19 20 21 22 23 24 25 26 27 28 29 30 31 32 33 34 35 36 37 38 39 40 41 42 43 44 45 46 47 48 49 50
000
FPUS83 KFGF 171810
OPUFGF
PRAIRIE TO PINES WEATHER ROUNDUP
NATIONAL WEATHER SERVICE EASTERN NORTH DAKOTA/GRAND FORKS ND
1200 PM CST WED JAN 17 2018

 **SATELLITE DATA USED TO AUGMENT SKY COVER AT AUTOMATED STATIONS**
 *****  WEATHER ACROSS EASTERN NORTH DAKOTA  *****

CITY           SKY/WX    TMP DP  RH WIND       PRES   REMARKS
GRAND FORKS    FAIR      22  14  71 SW15      29.95F WCI   9
6HR MIN TEMP:   6; 6HR MAX TEMP:  22;

GRND FORKS AFB SUNNY     27  14  57 SW12      29.95F WCI  17
GRND FORKS NWS NOT AVBL
BUXTON         NOT AVBL
DEVILS LAKE    FAIR      28  19  69 W20       29.95F WCI  15
6HR MIN TEMP:  11; 6HR MAX TEMP:  28;

FARGO          FAIR      19   8  62 SW16      30.06F WCI   4
6HR MIN TEMP:   5; 6HR MAX TEMP:  19;

WAHPETON ARPT  FAIR      21  10  63 SW3       30.11S
$$

 *****  WEATHER ACROSS CENTRAL AND WESTERN NORTH DAKOTA  *****

CITY           SKY/WX    TMP DP  RH WIND       PRES   REMARKS
JAMESTOWN      FAIR      27  16  63 W22       30.02F WCI  13
6HR MIN TEMP:   1; 6HR MAX TEMP:  27;

BISMARCK       FAIR      34  21  59 W12       30.11F
6HR MIN TEMP:  -4; 6HR MAX TEMP:  34;

MINOT          FAIR      35  19  52 W16       30.00R
6HR MIN TEMP:  20; 6HR MAX TEMP:  35;

MINOT AFB      FAIR      34  22  61 W17       29.97F WCI  23
6HR MIN TEMP:  19; 6HR MAX TEMP:  34;

GARRISON         N/A     33  20  58 W20       30.05F WCI  21
6HR MIN TEMP:   8; 6HR MAX TEMP:  33;

WILLISTON      FAIR      26  17  68 SW23      30.12R WCI  11
6HR MIN TEMP:   9; 6HR MAX TEMP:  26;

DICKINSON      FAIR      36  23  59 W18       30.12S
6HR MIN TEMP:  22; 6HR MAX TEMP:  36;

HETTINGER      FAIR      30  19  63 W14       30.19S WCI  19
6HR MIN TEMP:  14; 6HR MAX TEMP:  30;

$$

 *****  OTHER OBSERVATIONS NORTHEAST NORTH DAKOTA  *****

CITY           SKY/WX    TMP DP  RH WIND       PRES   REMARKS
WALHALLA       FAIR      30  18  59 VRB5G13   29.86F
LANGDON        FAIR      25  18  74 W22G29    29.88S WCI  10
CAVALIER         N/A     28  18  64 W12       29.88S WCI  18
GRAFTON        FAIR      27  18  69 SW14      29.94S WCI  15
CANDO          FAIR      28  18  64 W17       29.94F WCI  16
FORT TOTTEN      N/A     30  16  55 W9        29.95S WCI  22
ROLLA          FAIR      39  23  52 W17G23    29.85F
RUGBY          FAIR      28  19  69 W22       29.95F WCI  15
 ***** THE ABOVE OBSERVATIONS ARE NON NWS ARE NOT QUALITY
        CONTROLLED AND MAY MIS-REPORT RAIN FOR SNOW...
$$

 *****  OTHER OBSERVATIONS SOUTHEAST NORTH DAKOTA *****

CITY           SKY/WX    TMP DP  RH WIND       PRES   REMARKS
COOPERSTOWN    FAIR      25  18  74 W17       29.99F WCI  11
VALLEY CITY    FAIR      23  16  74 W18       30.03F WCI   9
OAKES            N/A     18   9  68 S17G25    30.09F WCI   2
GWINNER          N/A     19  10  68 SW24G31   30.07F WCI   2
SHEYENNE NWR     N/A     22   9  58 W14       29.95S WCI   9
BUFFALO        NOT AVBL
WYNDMERE       NOT AVBL
 ***** THE ABOVE OBSERVATIONS ARE NON NWS ARE NOT QUALITY
       CONTROLLED AND MAY MIS-REPORT RAIN FOR SNOW...
$$

  *****  WEATHER ACROSS NORTHERN MINNESOTA  *****

CITY           SKY/WX    TMP DP  RH WIND       PRES   REMARKS
FLAG ISLAND    FAIR      18   7  62 SW10      29.83F WCI   6
WARROAD          N/A     16   7  67 SW14      29.86F HAZE    WCI   1
ROSEAU         FAIR      18   9  68 SW18      29.86F WCI   2
HALLOCK        FAIR      16   9  73 S17       29.89F WCI   0
THF RVR FALLS  FAIR      13   6  74 SW18      29.94F WCI  -4
6HR MIN TEMP:   5; 6HR MAX TEMP:  13; 6HR PCP: TRACE;

HALSTAD        NOT AVBL
FOSSTON        FAIR      18   7  62 SW18      29.99F WCI   2
BAUDETTE       FAIR      19   6  57 SW14      29.85F WCI   6
6HR MIN TEMP:  10; 6HR MAX TEMP:  19;

WASKISH        FAIR      19  10  68 W18G25    29.90F WCI   4
CROOKSTON      FAIR      14   9  79 SW18      29.99F WCI  -3
$$
  *****  WEATHER ACROSS CENTRAL AND WEST MINNESOTA  *****

CITY           SKY/WX    TMP DP  RH WIND       PRES   REMARKS
BEMIDJI        FAIR      26   7  44 SW13      29.94F WCI  15
6HR MIN TEMP:  11; 6HR MAX TEMP:  26;

PARK RAPIDS    FAIR      20   6  55 W14       30.00F WCI   7
6HR MIN TEMP:   3; 6HR MAX TEMP:  20;

WADENA         FAIR      19   5  53 SW14      30.04F WCI   6
DETROIT LAKES  FAIR      21   9  58 SW14G20   30.04F WCI   8
MOORHEAD       FAIR      18   9  68 S7        30.08F WCI   8
FERGUS FALLS   FAIR      19   9  63 SW6       30.13F WCI  11
ELBOW LAKE     FAIR      22  11  61 W10       30.11F HAZE    WCI  11
6HR MIN TEMP:   1; 6HR MAX TEMP:  22;

MORRIS MN      FAIR      25  10  54 SW8       30.12S WCI  16
STAPLES        FAIR      21   3  45 SW8       30.06F WCI  12
WHEATON        FAIR      28  10  47 CALM      30.13F
$$
  *****  WEATHER ELSEWHERE ACROSS MINNESOTA  *****

CITY           SKY/WX    TMP DP  RH WIND       PRES   REMARKS
DULUTH         FAIR      16   3  56 W20G30    29.96F WCI  -1
6HR MIN TEMP:   3; 6HR MAX TEMP:  16;

INTRNTL FALLS  FAIR      24   7  48 W12G21    29.85F WCI  13
6HR MIN TEMP:   8; 6HR MAX TEMP:  25;

ELY            FAIR      19   5  53 SW13G20   29.86F WCI   7
CLOQUET        FAIR      18   0  45 SW13G18   30.00F WCI   4
BRAINERD       FAIR      19   3  49 SW13      30.06F WCI   6
6HR MIN TEMP:   4; 6HR MAX TEMP:  19;

HIBBING        FAIR      20   6  55 S8        29.92F WCI  10
6HR MIN TEMP:   3; 6HR MAX TEMP:  20;

ALEXANDRIA     FAIR      20   7  57 SW15      30.10F WCI   6
6HR MIN TEMP:   3; 6HR MAX TEMP:  20;

SAINT CLOUD    FAIR      17   7  64 S14       30.13F WCI   3
6HR MIN TEMP:   0; 6HR MAX TEMP:  17;

MINNEAPOLIS    FAIR      17   5  59 SW10G23   30.23F WCI   5
6HR MIN TEMP:   3; 6HR MAX TEMP:  17;

$$

  *****  WEATHER ACROSS SOUTH DAKOTA  *****

CITY           SKY/WX    TMP DP  RH WIND       PRES   REMARKS
SIOUX FALLS    FAIR      21  10  62 SW10      30.28F WCI  10
6HR MIN TEMP:   8; 6HR MAX TEMP:  21;

BROOKINGS      FAIR      20   9  62 SW14      30.20F WCI   7
WATERTOWN      FAIR      22  11  62 SW15      30.15F WCI   9
6HR MIN TEMP:   4; 6HR MAX TEMP:  22;

HURON          FAIR      23  11  60 S8        30.23F WCI  14
6HR MIN TEMP:   3; 6HR MAX TEMP:  23;

SISSETON         N/A     31  12  45 N9G20     30.08R WCI  23
ABERDEEN       FAIR      24  12  60 SW13      30.17F WCI  12
6HR MIN TEMP:   2; 6HR MAX TEMP:  24;

MITCHELL       FAIR      24  12  60 SW10      30.26F WCI  14
PIERRE         FAIR      28  13  53 W7        30.23F WCI  21
6HR MIN TEMP:   2; 6HR MAX TEMP:  28;

MOBRIDGE       FAIR      27  14  58 CALM      30.15F
RAPID CITY     FAIR      43  27  53 N13       30.25F
6HR MIN TEMP:  13; 6HR MAX TEMP:  43;

$$

  *****  SOME WEATHER IN NEARBY STATES *****

CITY           SKY/WX    TMP DP  RH WIND       PRES   REMARKS
GLASGOW MT     FAIR      17   9  70 N3        30.16S
6HR MIN TEMP:  -6; 6HR MAX TEMP:  17;

GREAT FALLS MT FAIR      38  24  57 SW17      30.18F
6HR MIN TEMP:  31; 6HR MAX TEMP:  38;

CHEYENNE WY    FAIR      44  15  31 NW22G33   30.29S
6HR MIN TEMP:  14; 6HR MAX TEMP:  44;

SCOTTSBLUFF NE FAIR      25  13  60 NW9       30.31S WCI  15
6HR MIN TEMP:   4; 6HR MAX TEMP:  25;

OMAHA NE       FAIR      22   8  55 S10       30.49F WCI  11
6HR MIN TEMP:   1; 6HR MAX TEMP:  22;

DES MOINES IA  FAIR      20   6  55 SW23G30   30.49F WCI   3
6HR MIN TEMP:  -3; 6HR MAX TEMP:  20;

DAVENPORT IA   FAIR      16   7  67 SW12      30.54F WCI   3
6HR MIN TEMP:  -1; 6HR MAX TEMP:  16;

CHICAGO IL     FAIR      16   7  67 SW13      30.48F WCI   2
6HR MIN TEMP:   4; 6HR MAX TEMP:  16;

EAU CLAIRE WI  FLURRIES  19   4  51 SW10      30.24F WCI   7
6HR MIN TEMP:  -3; 6HR MAX TEMP:  19; 6HR PCP: TRACE;

LA CROSSE WI   FAIR      20   5  52 S10       30.35F WCI   9
6HR MIN TEMP:  -1; 6HR MAX TEMP:  20;

$$

  *****  SOME NATIONAL WEATHER *****

CITY           SKY/WX    TMP DP  RH WIND       PRES   REM


USA.gov is the U.S. government's official web portal to all federal, state and local government web resources and services.